Regional Weather Roundup
Issued by NWS

Home | Current Version | Previous Version | Graphics & Text | Print | Product List | Glossary On
Versions: 1 2 3 4 5 6 7 8 9 10 11 12 13 14 15 16 17 18 19 20 21 22 23 24 25 26 27 28 29 30 31 32 33 34 35 36 37 38 39 40 41 42 43 44 45 46 47 48 49 50
635
ASUS43 KOAX 201810
RWRNE

WEATHER ROUNDUP FOR NEBRASKA
NATIONAL WEATHER SERVICE OMAHA NE
100 PM CDT WED SEP 20 2017

NOTES: SATELLITE DATA IS BEING USED TO AUGMENT CLOUD COVER ABOVE
       12000 FEET.
       "FAIR" INDICATES FEW OR NO CLOUDS BELOW 12,000 FEET WITH NO
       SIGNIFICANT WEATHER AND/OR OBSTRUCTIONS TO VISIBILITY.


NEZ001>004-019>022-054>056-201900-
NEBRASKA PANHANDLE

CITY           SKY/WX    TMP DP  RH WIND       PRES   REMARKS
SCOTTSBLUFF    SUNNY     68  26  20 NW12      29.91F
6HR MIN TEMP:  49; 6HR MAX TEMP:  68;

ALLIANCE       SUNNY     67  26  21 W13G24    29.91F
6HR MIN TEMP:  48; 6HR MAX TEMP:  68;

CHADRON        SUNNY     70  19  14 W16G25    29.87F
6HR MIN TEMP:  40; 6HR MAX TEMP:  70;

GORDON         FAIR      67  22  18 W10G17    29.89F
6HR MIN TEMP:  44; 6HR MAX TEMP:  67;

KIMBALL        SUNNY     65  37  34 S13G18    29.96F
SIDNEY         SUNNY     66  32  28 VRB7      29.96F
6HR MIN TEMP:  49; 6HR MAX TEMP:  67;

$$

NEZ057>060-069>072-079>082-201900-
SOUTHWEST NEBRASKA

CITY           SKY/WX    TMP DP  RH WIND       PRES   REMARKS
NORTH PLATTE   SUNNY     71  33  24 N8        29.93F
6HR MIN TEMP:  38; 6HR MAX TEMP:  72;

IMPERIAL       SUNNY     73  21  14 N9        29.96F
6HR MIN TEMP:  40; 6HR MAX TEMP:  73;

LEXINGTON      SUNNY     73  34  24 NW9       29.92F
MCCOOK         SUNNY     75  32  20 VRB7      29.93F
6HR MIN TEMP:  42; 6HR MAX TEMP:  76;

OGALLALA       SUNNY     71  22  15 NW9       29.94F
$$

NEZ005>010-023>029-035>040-094-201900-
NORTH CENTRAL NEBRASKA

CITY           SKY/WX    TMP DP  RH WIND       PRES   REMARKS
VALENTINE      SUNNY     72  26  18 SW22      29.88F
6HR MIN TEMP:  47; 6HR MAX TEMP:  72;

AINSWORTH      SUNNY     68  36  30 SW13G20   29.90F
BROKEN BOW     SUNNY     72  35  25 W9        29.91F
6HR MIN TEMP:  44; 6HR MAX TEMP:  72;

O`NEILL        SUNNY     69  45  41 W8        29.90S
ORD            SUNNY     71  39  31 NW9       29.90S
6HR MIN TEMP:  47; 6HR MAX TEMP:  71;

THEDFORD       SUNNY     70  32  24 NW8       29.92F
$$

NEZ041-046>049-061>064-073>077-083>087-201900-
SOUTH CENTRAL NEBRASKA

CITY           SKY/WX    TMP DP  RH WIND       PRES   REMARKS
GRAND ISLAND   SUNNY     73  43  33 NW9       29.91S
6HR MIN TEMP:  52; 6HR MAX TEMP:  73;

AURORA         SUNNY     73  43  34 N8        29.89S
HASTINGS       SUNNY     74  43  32 N10       29.91S
6HR MIN TEMP:  53; 6HR MAX TEMP:  74;

HEBRON         SUNNY     78  48  34 N9        29.86F
HOLDREGE       SUNNY     71  38  29 NW5       29.92F
KEARNEY        SUNNY     72  43  35 VRB7      29.92S
YORK           SUNNY     73  48  40 N7        29.88F
$$

NEZ011>018-030>034-042>045-201900-
NORTHEAST NEBRASKA

CITY           SKY/WX    TMP DP  RH WIND       PRES   REMARKS
NORFOLK        SUNNY     72  46  39 W10       29.87S
6HR MIN TEMP:  54; 6HR MAX TEMP:  72;

ALBION         SUNNY     71  45  38 NW6       29.89S
BLAIR          SUNNY     74  55  49 NW10      29.84S
COLUMBUS       SUNNY     74  46  36 VRB6      29.88S
FREMONT        SUNNY     74  50  43 N8        29.86S
TEKAMAH        SUNNY     75  51  43 NW10G17   29.85R
6HR MIN TEMP:  58; 6HR MAX TEMP:  75;

WAYNE          SUNNY     69  47  45 NW9       29.88S
$$

NEZ050>053-065>068-078-088>093-201900-
SOUTHEAST NEBRASKA

CITY           SKY/WX    TMP DP  RH WIND       PRES   REMARKS
LINCOLN        SUNNY     79  50  36 N10       29.85S
6HR MIN TEMP:  63; 6HR MAX TEMP:  79;

OMAHA EPPLEY   SUNNY     78  54  43 NW14      29.83R
6HR MIN TEMP:  65; 6HR MAX TEMP:  78;

BEATRICE       SUNNY     80  55  42 N12       29.84S
FALLS CITY     CLOUDY    82  67  60 W9        29.78R
6HR MIN TEMP:  74; 6HR MAX TEMP:  84;

NEBRASKA CITY  CLOUDY    77  58  51 N10       29.82R
PLATTSMOUTH    SUNNY     77  57  50 N10G18    29.83S
$$

NEZ044-045-051>053-067-201900-
OMAHA AREA

CITY           SKY/WX    TMP DP  RH WIND       PRES   REMARKS
OMAHA EPPLEY   SUNNY     78  54  43 NW14      29.83R
6HR MIN TEMP:  65; 6HR MAX TEMP:  78;

BLAIR          SUNNY     74  55  49 NW10      29.84S
FREMONT        SUNNY     74  50  43 N8        29.86S
MILLARD        SUNNY     78  56  47 NW9G18    29.83S
OFFUTT AFB     SUNNY     77  56  47 NW10      29.82R
PLATTSMOUTH    SUNNY     77  57  50 N10G18    29.83S
WAHOO          FAIR      75  51  42 N8G18     29.85S
$$




USA.gov is the U.S. government's official web portal to all federal, state and local government web resources and services.